User: anonymous   Login
Location: Hartman Creek State Park
(44.3257°N, 89.2134°W)
Time: 15:45:59
(UTC-05:00)
Language:

Cosmos 2263 Rocket - Orbit

View from above orbital plane
View from above orbital plane
View from above satellite
View from above satellite

Ground track
Ground track

The orbit data is extracted from the following two-line orbital elements,

1 22803U 93059B   15089.59119910 -.00000010  00000-0  18746-4 0  9991
2 22803 070.9898 155.3665 0017425 186.2872 173.8036 14.16704168113610
Epoch (UTC): 30 March 2015 14:11:19
Eccentricity: 0.0017425
inclination: 70.9898°
perigee height: 824 km
apogee height: 849 km
right ascension of ascending node: 155.3665°
argument of perigee: 186.2872°
revolutions per day: 14.16704168
mean anomaly at epoch: 173.8036°
orbit number at epoch: 11361

The dashed part of the orbit path shows where the satellite is in the earth's shadow,  

DLR